TimeCDT,TemperatureF,Dew PointF,Humidity,Sea Level PressureIn,VisibilityMPH,Wind Direction,Wind SpeedMPH,Gust SpeedMPH,PrecipitationIn,Events,Conditions,WindDirDegrees,DateUTC
12:15 AM,39.4,36.9,91,30.03,10.0,Calm,Calm,-,N/A,,Scattered Clouds,0,2013-04-05 05:15:00
12:35 AM,38.5,36.3,92,30.03,10.0,Calm,Calm,-,N/A,,Clear,0,2013-04-05 05:35:00
12:55 AM,38.3,36.5,93,30.04,10.0,Calm,Calm,-,N/A,,Clear,0,2013-04-05 05:55:00
1:15 AM,38.3,37.6,97,30.04,10.0,WSW,4.6,-,N/A,,Clear,240,2013-04-05 06:15:00
1:35 AM,38.3,37.2,96,30.04,10.0,SW,4.6,-,N/A,,Clear,220,2013-04-05 06:35:00
1:55 AM,37.6,37.0,98,30.04,10.0,SW,3.5,-,N/A,,Clear,220,2013-04-05 06:55:00
2:15 AM,36.7,35.8,97,30.04,10.0,Calm,Calm,-,N/A,,Clear,0,2013-04-05 07:15:00
2:35 AM,37.8,36.9,97,30.04,10.0,WSW,3.5,-,N/A,,Clear,250,2013-04-05 07:35:00
2:55 AM,38.7,38.1,98,30.04,10.0,West,3.5,-,N/A,,Clear,260,2013-04-05 07:55:00
3:15 AM,38.8,38.3,98,30.04,7.0,West,4.6,-,N/A,,Clear,260,2013-04-05 08:15:00
3:35 AM,38.5,37.8,97,30.05,7.0,WSW,3.5,-,N/A,,Clear,250,2013-04-05 08:35:00
3:55 AM,38.3,37.8,98,30.06,7.0,West,3.5,-,N/A,,Clear,260,2013-04-05 08:55:00
4:15 AM,38.3,38.3,100,30.06,7.0,Calm,Calm,-,N/A,,Clear,0,2013-04-05 09:15:00
4:35 AM,36.1,35.8,99,30.07,5.0,WSW,4.6,-,N/A,,Clear,240,2013-04-05 09:35:00
4:55 AM,37.9,37.9,100,30.07,7.0,SW,3.5,-,N/A,,Clear,230,2013-04-05 09:55:00
5:15 AM,37.0,37.0,100,30.08,5.0,SW,3.5,-,N/A,,Clear,230,2013-04-05 10:15:00
5:35 AM,36.1,36.1,100,30.08,7.0,WSW,3.5,-,N/A,,Clear,240,2013-04-05 10:35:00
5:55 AM,36.5,36.5,100,30.09,4.0,SW,4.6,-,N/A,,Clear,230,2013-04-05 10:55:00
6:15 AM,34.9,34.9,100,30.09,5.0,SW,3.5,-,N/A,,Clear,230,2013-04-05 11:15:00
6:55 AM,36.3,36.3,100,30.11,3.0,West,3.5,-,N/A,,Clear,260,2013-04-05 11:55:00
7:35 AM,37.9,37.9,100,30.11,4.0,WSW,3.5,-,N/A,,Clear,240,2013-04-05 12:35:00
7:55 AM,41.2,39.9,95,30.12,10.0,Calm,Calm,-,N/A,,Clear,0,2013-04-05 12:55:00
8:15 AM,43.9,39.9,86,30.12,10.0,WSW,3.5,-,N/A,,Clear,250,2013-04-05 13:15:00
8:35 AM,45.9,40.5,81,30.12,10.0,Calm,Calm,-,N/A,,Clear,0,2013-04-05 13:35:00
8:55 AM,49.3,39.2,68,30.12,10.0,Calm,Calm,-,N/A,,Clear,0,2013-04-05 13:55:00
9:15 AM,52.9,35.6,52,30.12,10.0,NW,5.8,-,N/A,,Clear,320,2013-04-05 14:15:00
9:35 AM,55.4,34.3,45,30.13,10.0,Calm,Calm,-,N/A,,Clear,0,2013-04-05 14:35:00
9:55 AM,57.2,33.4,41,30.13,10.0,NNE,3.5,-,N/A,,Clear,20,2013-04-05 14:55:00
10:15 AM,59.0,34.2,39,30.13,10.0,North,3.5,-,N/A,,Clear,350,2013-04-05 15:15:00
10:35 AM,59.9,32.7,36,30.13,10.0,NW,3.5,-,N/A,,Clear,320,2013-04-05 15:35:00
10:55 AM,61.2,32.7,34,30.13,10.0,North,6.9,-,N/A,,Clear,10,2013-04-05 15:55:00
11:15 AM,62.2,33.4,34,30.13,10.0,NNE,8.1,-,N/A,,Clear,20,2013-04-05 16:15:00
11:35 AM,62.6,33.1,33,30.12,10.0,North,9.2,-,N/A,,Clear,360,2013-04-05 16:35:00
11:55 AM,63.5,33.6,33,30.12,10.0,North,9.2,-,N/A,,Clear,350,2013-04-05 16:55:00
12:15 PM,64.0,33.8,32,30.12,10.0,NW,5.8,-,N/A,,Clear,310,2013-04-05 17:15:00
12:35 PM,64.9,34.7,33,30.11,10.0,North,5.8,-,N/A,,Clear,350,2013-04-05 17:35:00
12:55 PM,65.1,34.0,31,30.10,10.0,North,8.1,-,N/A,,Clear,10,2013-04-05 17:55:00
1:15 PM,65.7,33.8,31,30.09,10.0,Calm,Calm,-,N/A,,Clear,0,2013-04-05 18:15:00
1:35 PM,67.1,36.7,33,30.09,10.0,North,11.5,17.3,N/A,,Clear,360,2013-04-05 18:35:00
1:55 PM,67.1,36.1,32,30.08,10.0,North,8.1,17.3,N/A,,Clear,350,2013-04-05 18:55:00
2:15 PM,67.1,37.4,34,30.08,10.0,NNW,11.5,17.3,N/A,,Clear,340,2013-04-05 19:15:00
2:35 PM,67.5,38.1,34,30.08,10.0,North,12.7,-,N/A,,Clear,350,2013-04-05 19:35:00
2:55 PM,67.8,38.7,34,30.07,10.0,North,13.8,-,N/A,,Clear,350,2013-04-05 19:55:00
3:15 PM,68.0,37.6,33,30.06,10.0,NNW,11.5,-,N/A,,Clear,340,2013-04-05 20:15:00
3:35 PM,67.8,37.6,33,30.05,10.0,NNW,10.4,18.4,N/A,,Clear,340,2013-04-05 20:35:00
4:15 PM,67.8,38.1,34,30.05,10.0,North,6.9,-,N/A,,Clear,10,2013-04-05 21:15:00
4:35 PM,67.6,37.8,33,30.05,10.0,North,4.6,-,N/A,,Clear,360,2013-04-05 21:35:00
4:55 PM,67.1,39.0,36,30.05,10.0,NNE,5.8,-,N/A,,Clear,20,2013-04-05 21:55:00
5:15 PM,67.3,40.3,37,30.06,10.0,NNE,5.8,-,N/A,,Clear,20,2013-04-05 22:15:00
5:35 PM,66.7,39.9,37,30.06,10.0,NNE,10.4,-,N/A,,Clear,20,2013-04-05 22:35:00
5:55 PM,66.2,40.8,40,30.06,10.0,North,6.9,-,N/A,,Clear,10,2013-04-05 22:55:00
6:15 PM,65.1,41.2,42,30.06,10.0,North,6.9,-,N/A,,Clear,350,2013-04-05 23:15:00
6:35 PM,63.1,40.6,44,30.07,10.0,North,3.5,-,N/A,,Clear,360,2013-04-05 23:35:00
6:55 PM,60.6,41.9,50,30.07,10.0,Calm,Calm,-,N/A,,Clear,0,2013-04-05 23:55:00
7:15 PM,59.9,40.5,49,30.07,10.0,North,4.6,-,N/A,,Clear,350,2013-04-06 00:15:00
7:35 PM,60.6,38.3,44,30.08,10.0,North,4.6,-,N/A,,Clear,350,2013-04-06 00:35:00
7:55 PM,59.0,38.3,46,30.09,10.0,North,4.6,-,N/A,,Clear,360,2013-04-06 00:55:00
8:15 PM,59.4,36.5,43,30.09,10.0,North,3.5,-,N/A,,Clear,10,2013-04-06 01:15:00
8:35 PM,59.0,36.0,42,30.09,10.0,NNE,3.5,-,N/A,,Clear,20,2013-04-06 01:35:00
8:55 PM,57.2,36.5,46,30.10,10.0,Calm,Calm,-,N/A,,Clear,0,2013-04-06 01:55:00
9:15 PM,58.1,35.8,43,30.12,10.0,North,3.5,-,N/A,,Clear,10,2013-04-06 02:15:00
9:35 PM,54.1,37.0,52,30.12,10.0,NNE,3.5,-,N/A,,Clear,20,2013-04-06 02:35:00
9:55 PM,56.3,36.5,47,30.12,10.0,NNE,4.6,-,N/A,,Clear,20,2013-04-06 02:55:00
10:15 PM,56.3,36.0,46,30.12,10.0,NNE,4.6,-,N/A,,Clear,30,2013-04-06 03:15:00
10:35 PM,50.4,38.1,63,30.11,10.0,Calm,Calm,-,N/A,,Clear,0,2013-04-06 03:35:00
10:55 PM,50.0,38.8,66,30.11,10.0,Calm,Calm,-,N/A,,Clear,0,2013-04-06 03:55:00
11:15 PM,48.6,39.2,70,30.11,10.0,Calm,Calm,-,N/A,,Clear,0,2013-04-06 04:15:00
11:35 PM,48.2,40.3,74,30.11,10.0,Calm,Calm,-,N/A,,Clear,0,2013-04-06 04:35:00
11:55 PM,46.0,39.7,79,30.10,10.0,Calm,Calm,-,N/A,,Clear,0,2013-04-06 04:55:00